IGO21D VOBL-VCBI

Flight info

Callsign IGO21D
Flight time 1h 3m
Altitude 37000
Route AKTIM7B AKTIM V45 TTR G325 IDIBI IDIBI1A
Aircraft A320/M-SDE3FGHIRWY/LB1

Departure

Time 2026-04-29 09:21
Airport Kempegowda International Airport Bengaluru (VOBL)

Arrival

Time 2026-04-29 10:24
Airport Bandaranaike International Colombo Airport (VCBI)
Time Latitude Longitude Altitude Speed Heading
2026-04-29 09:01 13.20071 77.71596 2969 ft 0 kts 180°
2026-04-29 09:13 13.20088 77.71596 2969 ft 4 kts 180°
2026-04-29 09:13 13.20115 77.71597 2969 ft 4 kts 180°
2026-04-29 09:13 13.20142 77.71597 2969 ft 4 kts 178°
2026-04-29 09:14 13.20165 77.71595 2969 ft 2 kts 167°
2026-04-29 09:14 13.20176 77.71592 2969 ft 2 kts 135°
2026-04-29 09:14 13.20183 77.71583 2969 ft 2 kts 96°
2026-04-29 09:14 13.20184 77.71573 2969 ft 0 kts 93°
2026-04-29 09:16 13.20183 77.71573 2969 ft 0 kts 93°
2026-04-29 09:16 13.20183 77.71590 2968 ft 4 kts 93°
2026-04-29 09:16 13.20181 77.71615 2969 ft 4 kts 92°
2026-04-29 09:17 13.20181 77.71650 2968 ft 7 kts 90°
2026-04-29 09:17 13.20182 77.71710 2968 ft 10 kts 90°
2026-04-29 09:17 13.20181 77.71799 2968 ft 15 kts 91°
2026-04-29 09:17 13.20178 77.71918 2968 ft 19 kts 91°
2026-04-29 09:18 13.20177 77.72056 2969 ft 15 kts 90°
2026-04-29 09:18 13.20239 77.72111 2968 ft 14 kts
2026-04-29 09:18 13.20342 77.72113 2969 ft 15 kts
2026-04-29 09:18 13.20455 77.72113 2967 ft 18 kts 359°
2026-04-29 09:19 13.20516 77.72184 2968 ft 15 kts 86°
2026-04-29 09:19 13.20544 77.72280 2966 ft 15 kts 20°
2026-04-29 09:19 13.20650 77.72281 2967 ft 16 kts 354°
2026-04-29 09:19 13.20687 77.72239 2967 ft 0 kts 271°
2026-04-29 09:20 13.20687 77.72098 2967 ft 52 kts 270°
2026-04-29 09:20 13.20692 77.71506 2968 ft 111 kts 270°
2026-04-29 09:20 13.20700 77.70547 2969 ft 155 kts 270°
2026-04-29 09:21 13.20720 77.69354 3281 ft 171 kts 274°
2026-04-29 09:21 13.20983 77.68139 3871 ft 177 kts 290°
2026-04-29 09:21 13.21534 77.66984 4287 ft 187 kts 302°
2026-04-29 09:21 13.22249 77.65793 4519 ft 204 kts 301°
2026-04-29 09:22 13.22752 77.64951 4699 ft 214 kts 301°
2026-04-29 09:22 13.23568 77.63570 4827 ft 240 kts 301°
2026-04-29 09:22 13.24466 77.62033 5075 ft 264 kts 301°
2026-04-29 09:22 13.25437 77.60362 5544 ft 278 kts 301°
2026-04-29 09:23 13.26433 77.58643 6264 ft 282 kts 301°
2026-04-29 09:23 13.27445 77.56897 6979 ft 286 kts 301°
2026-04-29 09:23 13.28467 77.55132 7707 ft 290 kts 300°
2026-04-29 09:23 13.29197 77.53191 8387 ft 296 kts 280°
2026-04-29 09:24 13.29180 77.51075 9097 ft 300 kts 257°
2026-04-29 09:24 13.28331 77.49128 9805 ft 303 kts 232°
2026-04-29 09:24 13.26758 77.47680 10307 ft 313 kts 207°
2026-04-29 09:24 13.24634 77.47019 10487 ft 331 kts 181°
2026-04-29 09:25 13.22273 77.47166 10614 ft 351 kts 172°
2026-04-29 09:25 13.19772 77.47425 10737 ft 371 kts 172°
2026-04-29 09:25 13.17143 77.47703 10848 ft 389 kts 173°
2026-04-29 09:25 13.14400 77.47982 11080 ft 401 kts 173°
2026-04-29 09:26 13.11604 77.48254 11554 ft 406 kts 173°
2026-04-29 09:26 13.08776 77.48523 12089 ft 409 kts 173°
2026-04-29 09:26 13.05963 77.48788 12637 ft 412 kts 173°
2026-04-29 09:26 13.03103 77.49056 13191 ft 415 kts 173°
2026-04-29 09:27 13.00220 77.49324 13710 ft 418 kts 173°
2026-04-29 09:27 12.97314 77.49598 13894 ft 419 kts 173°
2026-04-29 09:27 12.94408 77.49874 13946 ft 419 kts 173°
2026-04-29 09:27 12.91509 77.50155 13949 ft 419 kts 173°
2026-04-29 09:28 12.88608 77.50434 13947 ft 419 kts 173°
2026-04-29 09:28 12.85705 77.50712 13951 ft 419 kts 173°
2026-04-29 09:28 12.82805 77.50987 13947 ft 419 kts 173°
2026-04-29 09:28 12.79901 77.51262 13946 ft 419 kts 173°
2026-04-29 09:29 12.76991 77.51538 13944 ft 419 kts 173°
2026-04-29 09:29 12.71180 77.52091 13944 ft 420 kts 173°
2026-04-29 09:29 12.68272 77.52368 13981 ft 422 kts 173°
2026-04-29 09:30 12.65337 77.52651 14457 ft 424 kts 173°
2026-04-29 09:30 12.62391 77.52936 14908 ft 427 kts 173°
2026-04-29 09:30 12.59485 77.53547 15331 ft 427 kts 159°
2026-04-29 09:30 12.56831 77.54919 15742 ft 429 kts 147°
2026-04-29 09:31 12.54301 77.56564 16175 ft 432 kts 146°
2026-04-29 09:31 12.51768 77.58237 16600 ft 435 kts 146°
2026-04-29 09:31 12.49219 77.59933 17009 ft 438 kts 146°
2026-04-29 09:31 12.46648 77.61642 17391 ft 442 kts 146°
2026-04-29 09:32 12.44055 77.63360 17768 ft 446 kts 146°
2026-04-29 09:32 12.41445 77.65084 18142 ft 449 kts 146°
2026-04-29 09:32 12.38808 77.66820 18476 ft 452 kts 147°
2026-04-29 09:32 12.36149 77.68566 18812 ft 454 kts 147°
2026-04-29 09:33 12.33510 77.70297 19151 ft 456 kts 147°
2026-04-29 09:33 12.30832 77.72054 19490 ft 458 kts 147°
2026-04-29 09:33 12.28143 77.73819 19842 ft 460 kts 147°
2026-04-29 09:33 12.25444 77.75590 20187 ft 462 kts 147°
2026-04-29 09:34 12.22732 77.77372 20522 ft 464 kts 147°
2026-04-29 09:34 12.20006 77.79165 20857 ft 466 kts 147°
2026-04-29 09:34 12.17275 77.80958 21176 ft 468 kts 147°
2026-04-29 09:34 12.14530 77.82758 21493 ft 470 kts 147°
2026-04-29 09:35 12.11772 77.84566 21792 ft 471 kts 147°
2026-04-29 09:35 12.09009 77.86378 22075 ft 473 kts 147°
2026-04-29 09:35 12.06235 77.88197 22332 ft 474 kts 148°
2026-04-29 09:35 12.03455 77.90020 22582 ft 475 kts 148°
2026-04-29 09:36 12.00665 77.91849 22820 ft 477 kts 148°
2026-04-29 09:36 11.97866 77.93683 23061 ft 478 kts 148°
2026-04-29 09:36 11.95065 77.95518 23324 ft 479 kts 148°
2026-04-29 09:36 11.92259 77.97355 23638 ft 478 kts 148°
2026-04-29 09:37 11.89463 77.99183 23923 ft 477 kts 148°
2026-04-29 09:37 11.86662 78.01015 24199 ft 477 kts 148°
2026-04-29 09:37 11.83863 78.02846 24468 ft 478 kts 148°
2026-04-29 09:37 11.81091 78.04661 24732 ft 479 kts 148°
2026-04-29 09:38 11.78283 78.06498 25008 ft 479 kts 148°
2026-04-29 09:38 11.75477 78.08334 25294 ft 480 kts 148°
2026-04-29 09:38 11.72667 78.10170 25597 ft 480 kts 148°
2026-04-29 09:38 11.69848 78.12008 25905 ft 480 kts 148°
2026-04-29 09:39 11.67032 78.13847 26241 ft 481 kts 148°
2026-04-29 09:39 11.64219 78.15686 26577 ft 481 kts 148°
2026-04-29 09:39 11.61402 78.17530 26911 ft 481 kts 148°
2026-04-29 09:39 11.58583 78.19374 27257 ft 481 kts 148°
2026-04-29 09:40 11.55765 78.21215 27600 ft 481 kts 148°
2026-04-29 09:40 11.52941 78.23055 27951 ft 481 kts 148°
2026-04-29 09:40 11.50113 78.24897 28299 ft 482 kts 148°
2026-04-29 09:40 11.47327 78.26714 28642 ft 483 kts 148°
2026-04-29 09:41 11.44461 78.28584 29004 ft 483 kts 148°
2026-04-29 09:41 11.41627 78.30432 29381 ft 483 kts 148°
2026-04-29 09:41 11.38833 78.32255 29761 ft 484 kts 148°
2026-04-29 09:41 11.35994 78.34105 30113 ft 484 kts 148°
2026-04-29 09:42 11.33161 78.35950 30488 ft 482 kts 148°
2026-04-29 09:42 11.30342 78.37787 30902 ft 480 kts 148°
2026-04-29 09:42 11.27531 78.39618 31346 ft 478 kts 148°
2026-04-29 09:42 11.24745 78.41433 31778 ft 475 kts 148°
2026-04-29 09:43 11.21965 78.43247 32219 ft 473 kts 148°
2026-04-29 09:43 11.19198 78.45051 32671 ft 470 kts 148°
2026-04-29 09:43 11.16449 78.46839 33129 ft 468 kts 148°
2026-04-29 09:43 11.13710 78.48619 33581 ft 466 kts 148°
2026-04-29 09:44 11.10981 78.50389 34014 ft 463 kts 148°
2026-04-29 09:44 11.08266 78.52149 34363 ft 462 kts 148°
2026-04-29 09:44 11.05559 78.53909 34691 ft 461 kts 148°
2026-04-29 09:44 11.02856 78.55667 35007 ft 461 kts 148°
2026-04-29 09:45 11.00154 78.57424 35302 ft 461 kts 148°
2026-04-29 09:45 10.97446 78.59184 35603 ft 461 kts 148°
2026-04-29 09:45 10.94747 78.60939 35902 ft 460 kts 148°
2026-04-29 09:45 10.92047 78.62692 36203 ft 460 kts 149°
2026-04-29 09:46 10.89352 78.64439 36505 ft 459 kts 149°
2026-04-29 09:46 10.86655 78.66188 36713 ft 460 kts 149°
2026-04-29 09:46 10.81246 78.69706 36757 ft 470 kts 149°
2026-04-29 09:47 10.75507 78.72925 36754 ft 471 kts 161°
2026-04-29 09:47 10.69267 78.74915 36755 ft 470 kts 165°
2026-04-29 09:48 10.63018 78.76870 36760 ft 470 kts 164°
2026-04-29 09:48 10.56763 78.78841 36768 ft 470 kts 164°
2026-04-29 09:49 10.50501 78.80806 36783 ft 471 kts 164°
2026-04-29 09:49 10.44273 78.82748 36796 ft 470 kts 164°
2026-04-29 09:50 10.38018 78.84709 36796 ft 470 kts 164°
2026-04-29 09:50 10.31766 78.86660 36809 ft 470 kts 164°
2026-04-29 09:51 10.25516 78.88613 36806 ft 470 kts 164°
2026-04-29 09:51 10.19268 78.90565 36810 ft 470 kts 165°
2026-04-29 09:52 10.13016 78.92513 36811 ft 470 kts 164°
2026-04-29 09:52 10.06770 78.94467 36813 ft 470 kts 164°
2026-04-29 09:53 10.00526 78.96419 36808 ft 469 kts 164°
2026-04-29 09:53 9.94274 78.98367 36810 ft 470 kts 164°
2026-04-29 09:54 9.88067 79.00301 36813 ft 470 kts 164°
2026-04-29 09:54 9.81820 79.02246 36815 ft 469 kts 163°
2026-04-29 09:55 9.75581 79.04186 36818 ft 469 kts 163°
2026-04-29 09:55 9.69352 79.06126 36821 ft 468 kts 163°
2026-04-29 09:56 9.63128 79.08069 36826 ft 468 kts 163°
2026-04-29 09:56 9.56912 79.10000 36830 ft 467 kts 163°
2026-04-29 09:57 9.50698 79.11932 36830 ft 467 kts 163°
2026-04-29 09:57 9.44493 79.13882 36832 ft 466 kts 162°
2026-04-29 09:58 9.38314 79.15871 36837 ft 466 kts 162°
2026-04-29 09:58 9.32129 79.17868 36842 ft 466 kts 162°
2026-04-29 09:59 9.25950 79.19854 36847 ft 466 kts 162°
2026-04-29 09:59 9.19771 79.21829 36847 ft 465 kts 162°
2026-04-29 10:00 9.13604 79.23796 36845 ft 465 kts 162°
2026-04-29 10:00 9.07488 79.25751 36829 ft 455 kts 162°
2026-04-29 10:01 9.01394 79.27700 36830 ft 462 kts 162°
2026-04-29 10:01 8.95259 79.29664 36831 ft 463 kts 162°
2026-04-29 10:02 8.89116 79.31622 36831 ft 463 kts 162°
2026-04-29 10:02 8.82966 79.33582 36834 ft 464 kts 162°
2026-04-29 10:03 8.76799 79.35550 36835 ft 464 kts 162°
2026-04-29 10:03 8.70992 79.38337 36838 ft 464 kts 147°
2026-04-29 10:04 8.68284 79.40114 36726 ft 462 kts 147°
2026-04-29 10:04 8.65610 79.41861 36469 ft 454 kts 147°
2026-04-29 10:04 8.62974 79.43581 36227 ft 449 kts 147°
2026-04-29 10:04 8.60356 79.45289 35989 ft 446 kts 147°
2026-04-29 10:05 8.57751 79.46989 35756 ft 444 kts 148°
2026-04-29 10:05 8.55194 79.48656 35517 ft 443 kts 148°
2026-04-29 10:05 8.52577 79.50355 35279 ft 441 kts 148°
2026-04-29 10:05 8.50028 79.52010 35005 ft 440 kts 148°
2026-04-29 10:06 8.47357 79.53554 34278 ft 445 kts 156°
2026-04-29 10:06 8.44500 79.54671 33977 ft 437 kts 163°
2026-04-29 10:06 8.41623 79.55584 33243 ft 430 kts 163°
2026-04-29 10:06 8.38787 79.56488 32485 ft 424 kts 162°
2026-04-29 10:07 8.35989 79.57382 31907 ft 421 kts 162°
2026-04-29 10:07 8.33216 79.58269 31529 ft 416 kts 162°
2026-04-29 10:07 8.31385 79.58854 31270 ft 413 kts 162°
2026-04-29 10:07 8.27738 79.60017 30715 ft 409 kts 162°
2026-04-29 10:08 8.25924 79.60594 30093 ft 416 kts 162°
2026-04-29 10:08 8.23120 79.61488 28939 ft 428 kts 161°
2026-04-29 10:08 8.20242 79.62405 27826 ft 438 kts 161°
2026-04-29 10:08 8.17309 79.63340 26906 ft 443 kts 161°
2026-04-29 10:09 8.14346 79.64285 25826 ft 452 kts 161°
2026-04-29 10:09 8.11325 79.65248 25257 ft 456 kts 161°
2026-04-29 10:09 8.08295 79.66217 25010 ft 459 kts 161°
2026-04-29 10:09 8.05217 79.67204 24826 ft 467 kts 161°
2026-04-29 10:10 8.02128 79.68222 24650 ft 470 kts 158°
2026-04-29 10:10 7.99261 79.69772 23654 ft 468 kts 141°
2026-04-29 10:10 7.96828 79.71926 22998 ft 459 kts 137°
2026-04-29 10:10 7.94480 79.74058 22361 ft 450 kts 137°
2026-04-29 10:11 7.92012 79.75965 21561 ft 447 kts 148°
2026-04-29 10:11 7.89238 79.77428 20507 ft 451 kts 152°
2026-04-29 10:11 7.86462 79.78807 20030 ft 439 kts 153°
2026-04-29 10:11 7.83765 79.80123 19006 ft 426 kts 153°
2026-04-29 10:12 7.81105 79.81416 17695 ft 425 kts 153°
2026-04-29 10:12 7.78433 79.82719 16863 ft 424 kts 153°
2026-04-29 10:12 7.75801 79.84011 16193 ft 419 kts 153°
2026-04-29 10:12 7.73196 79.85297 15529 ft 414 kts 152°
2026-04-29 10:13 7.70624 79.86573 14895 ft 411 kts 152°
2026-04-29 10:13 7.68071 79.87842 14281 ft 407 kts 152°
2026-04-29 10:13 7.65539 79.89098 13662 ft 403 kts 152°
2026-04-29 10:13 7.63033 79.90338 12971 ft 400 kts 152°
2026-04-29 10:14 7.60549 79.91566 12313 ft 395 kts 153°
2026-04-29 10:14 7.58098 79.92778 11666 ft 391 kts 153°
2026-04-29 10:14 7.55665 79.93981 11020 ft 386 kts 153°
2026-04-29 10:14 7.53271 79.95167 10360 ft 383 kts 153°
2026-04-29 10:15 7.50889 79.96345 9714 ft 379 kts 153°
2026-04-29 10:15 7.48532 79.97510 9016 ft 375 kts 154°
2026-04-29 10:15 7.46230 79.98647 8358 ft 371 kts 154°
2026-04-29 10:15 7.43812 79.99406 7997 ft 358 kts 173°
2026-04-29 10:16 7.41393 79.99607 7874 ft 341 kts 176°
2026-04-29 10:16 7.39051 79.99762 7405 ft 336 kts 176°
2026-04-29 10:16 7.36757 79.99916 6822 ft 324 kts 176°
2026-04-29 10:16 7.34561 79.99756 6249 ft 313 kts 194°
2026-04-29 10:17 7.32609 79.98867 5638 ft 305 kts 214°
2026-04-29 10:17 7.31217 79.97339 5245 ft 292 kts 240°
2026-04-29 10:17 7.30661 79.95419 4880 ft 283 kts 266°
2026-04-29 10:17 7.31023 79.93511 4523 ft 277 kts 294°
2026-04-29 10:18 7.32195 79.92023 4153 ft 272 kts 322°
2026-04-29 10:18 7.33906 79.91276 3790 ft 270 kts 352°
2026-04-29 10:18 7.35766 79.91438 3425 ft 272 kts 21°
2026-04-29 10:18 7.37341 79.92464 3034 ft 272 kts 49°
2026-04-29 10:19 7.38241 79.94112 2650 ft 270 kts 78°
2026-04-29 10:19 7.38252 79.95972 2307 ft 266 kts 108°
2026-04-29 10:19 7.37383 79.97559 2059 ft 257 kts 137°
2026-04-29 10:19 7.35901 79.98469 1810 ft 247 kts 167°
2026-04-29 10:20 7.34216 79.98559 1638 ft 240 kts 187°
2026-04-29 10:20 7.32663 79.98095 1536 ft 229 kts 207°
2026-04-29 10:20 7.31273 79.97398 1506 ft 216 kts 207°
2026-04-29 10:20 7.29975 79.96754 1487 ft 199 kts 207°
2026-04-29 10:21 7.28788 79.96166 1519 ft 180 kts 206°
2026-04-29 10:21 7.27740 79.95647 1500 ft 157 kts 206°
2026-04-29 10:21 7.26867 79.95094 1467 ft 142 kts 219°
2026-04-29 10:21 7.26101 79.94471 1510 ft 140 kts 217°
2026-04-29 10:22 7.25343 79.93875 1495 ft 137 kts 216°
2026-04-29 10:22 7.24568 79.93296 1300 ft 139 kts 216°
2026-04-29 10:22 7.23799 79.92718 1119 ft 137 kts 216°
2026-04-29 10:22 7.23053 79.92150 930 ft 136 kts 217°
2026-04-29 10:23 7.22295 79.91573 779 ft 139 kts 218°
2026-04-29 10:23 7.21532 79.90990 572 ft 138 kts 218°
2026-04-29 10:23 7.20779 79.90411 396 ft 137 kts 217°
2026-04-29 10:23 7.20018 79.89830 241 ft 137 kts 218°
2026-04-29 10:24 7.19269 79.89255 66 ft 135 kts 219°
2026-04-29 10:24 7.18594 79.88739 29 ft 102 kts 216°
2026-04-29 10:24 7.18165 79.88413 27 ft 52 kts 217°
2026-04-29 10:24 7.17947 79.88246 29 ft 29 kts 217°
2026-04-29 10:25 7.17860 79.88230 30 ft 10 kts 136°
2026-04-29 10:25 7.17807 79.88297 28 ft 14 kts 127°
2026-04-29 10:25 7.17718 79.88299 28 ft 15 kts 218°
2026-04-29 10:25 7.17623 79.88263 28 ft 16 kts 149°
2026-04-29 10:26 7.17546 79.88359 27 ft 19 kts 127°
2026-04-29 10:26 7.17477 79.88459 27 ft 12 kts 98°
2026-04-29 10:26 7.17505 79.88488 27 ft 7 kts 39°
2026-04-29 10:26 7.17532 79.88508 27 ft 0 kts 35°